SL-8 R/B, 1575

Orbit data source: Space-Track

SL-8 R/B, 1575 is space debris in LEO originally from a launch on Fri, 03 Sep 1965 UTC launched from the Tyuratam Missile And Space Complex (TTMTR). Debris objects in space refer to the collection of defunct objects orbiting the Earth. Examples of debris include non-operational satellites, rocket bodies, and fragments generated from explosions, collisions, or faulty payload assembly.

Loading next visibility...
Identifier
1575, 1965-070F
Orbit
LEO
Last TLE update
14 hours ago
Origin
Manufacturer
Yuzhnoe
Mission
Spacecraft
Bus & Motor
S3, Unknown motor
Mass
1,434 kg wet, 1,434 kg dry
Launch date (UTC)
1965-09-03 (60 years ago)
Launch vehicle
Unknown
Launch site
Tyuratam Missile And Space Complex (TTMTR)
Object type
Payload
Rocket body
Debris
Shape & HBR
Cyl, 3.3 m
Radar Cross Section
14.646 m², Large (>1 m²)

Expand to show TLE details & history

TLE from 14 hours ago
0 SL-8 R/B
1  1575U 65070F   25198.72086426 -.00000081  00000-0  93599-4 0  9995
2  1575  56.1259 304.6235 0098652 349.8598 159.6461 12.57009252749079
Epoch: 2025-07-17T17:18Z
TLE epoch observation values (Epoch: 2025-07-17T17:18:02.672Z)
Latitude
24.6646°
Longitude
-88.53466°
Altitude
1,508.848 km
Speed
7.08 km/s
True Right ascension
07h 07m 02s
True Declination
24° 32' 49"
Sunlit
Object was in daylight at epoch
Visualization orbit readout
Latitude
-53.21278°
Longitude
-8.95309°
Altitude
1,461.994 km
Speed
7.128 km/s
Apparent Right ascension
10h 08m 47s
Apparent Declination
-52° 10' 07"
Sunlit
Object is in daylight
Visualization observer readout
Local Sidereal Time
19:58:21
Azimuth
230.315° WSW
Elevation
-64.565°
Doppler factor
1
Orbital elements
Apogee altitude
1,512.206 km
Perigee altitude
1,358.047 km
Semi-major axis
7,813.263 km
Eccentricity
0.00987
Inclination
56.1259°
RAAN
304.6235°
Arg. of periapsis
349.8598°
True anomaly
160.0348°
Mean anomaly
159.6461°
Eccentric anomaly
159.8409°
Mean motion
3.14264 °/min
Orbital period
114.55 mins
BSTAR
0.000093599
Loading maneuver chart data...
Loading SW <> Apogee altitude chart data...
Loading historical data...
Loading historical data...
Loading historical data...
Loading historical data...
Loading historical data...
Loading historical data...
Loading historical data...
Other satellites on launch #70 in the year 1965 (1965-09-03 UTC)
|